Zurück zum Katalog

XM-1

AktivKommunikationGEO
NORAD 26761·PAYLOAD·🇺🇸 United States

Gestartet May 8, 2001 von Sea Launch Platform

Loading…

TLE

AktuellSource: Space-Track

Epoche: Sep 14, 2026, 12:22 UTC

1 26761U 01018A   26257.51559531  .00000069  00000-0  00000+0 0  9992
2 26761   9.0541  60.7261 0001642  18.5969 159.0931  0.99002551 47006

Verfolge XM-1 in Echtzeit mit AllMySat

Download on the App Store